Time,TemperatureF,DewpointF,PressureIn,WindDirection,WindDirectionDegrees,WindSpeedMPH,WindSpeedGustMPH,Humidity,HourlyPrecipIn,Conditions,Clouds,dailyrainin,SolarRadiationWatts/m^2,SoftwareType,DateUTC
2013-06-15 00:00:00,76.0,72.9,29.90,SW,233,0.0,0.0,90,0.00,,,0.00,0,Wunderground v.1.15,2013-06-15 05:00:00,
2013-06-15 00:10:00,75.8,73.0,29.90,SW,233,0.0,0.0,91,0.00,,,0.00,0,Wunderground v.1.15,2013-06-15 05:10:00,
2013-06-15 00:15:00,75.8,73.0,29.90,SW,233,0.0,0.0,91,0.00,,,0.00,0,Wunderground v.1.15,2013-06-15 05:15:00,
2013-06-15 00:20:00,75.8,73.0,29.90,SW,233,0.0,0.0,91,0.00,,,0.00,0,Wunderground v.1.15,2013-06-15 05:20:00,
2013-06-15 00:25:00,75.8,73.0,29.90,SW,233,0.0,0.0,91,0.00,,,0.00,0,Wunderground v.1.15,2013-06-15 05:25:00,
2013-06-15 00:35:00,75.9,73.1,29.91,SW,233,0.0,0.0,91,0.00,,,0.00,0,Wunderground v.1.15,2013-06-15 05:35:00,
2013-06-15 00:40:00,75.8,73.0,29.91,SW,233,0.0,0.0,91,0.00,,,0.00,0,Wunderground v.1.15,2013-06-15 05:40:00,
2013-06-15 00:45:00,75.8,73.0,29.91,SW,233,0.0,0.0,91,0.00,,,0.00,0,Wunderground v.1.15,2013-06-15 05:45:00,
2013-06-15 00:50:00,75.8,73.0,29.91,SW,233,0.0,0.0,91,0.00,,,0.00,0,Wunderground v.1.15,2013-06-15 05:50:00,
2013-06-15 00:55:00,75.8,73.0,29.91,SW,233,0.0,0.0,91,0.00,,,0.00,0,Wunderground v.1.15,2013-06-15 05:55:00,
2013-06-15 01:05:00,75.8,73.3,29.91,SW,233,0.0,0.0,92,0.00,,,0.00,0,Wunderground v.1.15,2013-06-15 06:05:00,
2013-06-15 01:15:00,76.0,73.2,29.91,SW,233,0.0,0.0,91,0.00,,,0.00,0,Wunderground v.1.15,2013-06-15 06:15:00,
2013-06-15 01:20:00,76.1,73.3,29.91,SW,233,0.0,0.0,91,0.00,,,0.00,0,Wunderground v.1.15,2013-06-15 06:20:00,
2013-06-15 01:25:00,76.1,73.3,29.91,SW,233,0.0,0.0,91,0.00,,,0.00,0,Wunderground v.1.15,2013-06-15 06:25:00,
2013-06-15 01:30:00,76.1,73.3,29.91,SW,233,0.0,0.0,91,0.00,,,0.00,0,Wunderground v.1.15,2013-06-15 06:30:00,
2013-06-15 01:35:00,76.1,73.3,29.91,SW,233,0.0,0.0,91,0.00,,,0.00,0,Wunderground v.1.15,2013-06-15 06:35:00,
2013-06-15 01:45:00,76.0,72.9,29.90,SW,233,0.0,0.0,90,0.00,,,0.00,0,Wunderground v.1.15,2013-06-15 06:45:00,
2013-06-15 01:50:00,76.2,73.1,29.91,SW,233,0.0,0.0,90,0.00,,,0.00,0,Wunderground v.1.15,2013-06-15 06:50:00,
2013-06-15 01:55:00,76.5,73.0,29.91,ENE,62,0.0,1.0,89,0.00,,,0.00,0,Wunderground v.1.15,2013-06-15 06:55:00,
2013-06-15 02:00:00,76.9,73.4,29.90,ESE,103,0.0,0.0,89,0.00,,,0.00,0,Wunderground v.1.15,2013-06-15 07:00:00,
2013-06-15 02:05:00,77.2,73.4,29.90,ESE,105,0.0,0.0,88,0.00,,,0.00,0,Wunderground v.1.15,2013-06-15 07:05:00,
2013-06-15 02:10:00,77.4,73.2,29.90,East,86,0.0,0.0,87,0.00,,,0.00,0,Wunderground v.1.15,2013-06-15 07:10:00,
2013-06-15 02:20:00,77.6,73.4,29.90,SSE,148,0.0,0.0,87,0.00,,,0.00,0,Wunderground v.1.15,2013-06-15 07:20:00,
2013-06-15 02:25:00,77.8,73.6,29.90,East,86,0.0,0.0,87,0.00,,,0.00,0,Wunderground v.1.15,2013-06-15 07:25:00,
2013-06-15 02:30:00,77.9,73.7,29.90,SE,128,0.0,0.0,87,0.00,,,0.00,0,Wunderground v.1.15,2013-06-15 07:30:00,
2013-06-15 02:35:00,78.0,73.5,29.90,ENE,71,0.0,1.0,86,0.00,,,0.00,0,Wunderground v.1.15,2013-06-15 07:35:00,
2013-06-15 02:40:00,78.1,73.6,29.90,East,95,0.0,0.0,86,0.00,,,0.00,0,Wunderground v.1.15,2013-06-15 07:40:00,
2013-06-15 02:50:00,78.2,73.7,29.89,SSW,200,0.0,0.0,86,0.00,,,0.00,0,Wunderground v.1.15,2013-06-15 07:50:00,
2013-06-15 02:55:00,78.1,73.6,29.89,SSW,200,0.0,0.0,86,0.00,,,0.00,0,Wunderground v.1.15,2013-06-15 07:55:00,
2013-06-15 03:00:00,78.0,73.5,29.89,SSW,201,0.0,0.0,86,0.00,,,0.00,0,Wunderground v.1.15,2013-06-15 08:00:00,
2013-06-15 03:05:00,77.9,73.7,29.89,SSW,201,0.0,0.0,87,0.00,,,0.00,0,Wunderground v.1.15,2013-06-15 08:05:00,
2013-06-15 03:10:00,77.8,73.6,29.89,SSW,201,0.0,0.0,87,0.00,,,0.00,0,Wunderground v.1.15,2013-06-15 08:10:00,
2013-06-15 03:15:00,77.7,73.5,29.89,SSW,201,0.0,0.0,87,0.00,,,0.00,0,Wunderground v.1.15,2013-06-15 08:15:00,
2013-06-15 03:20:00,77.5,73.3,29.89,SSW,201,0.0,0.0,87,0.00,,,0.00,0,Wunderground v.1.15,2013-06-15 08:20:00,
2013-06-15 03:25:00,77.3,73.5,29.89,SSW,201,0.0,0.0,88,0.00,,,0.00,0,Wunderground v.1.15,2013-06-15 08:25:00,
2013-06-15 03:30:00,77.1,73.3,29.89,SSW,201,0.0,0.0,88,0.00,,,0.00,0,Wunderground v.1.15,2013-06-15 08:30:00,
2013-06-15 03:40:00,76.8,73.3,29.88,SSW,201,0.0,0.0,89,0.00,,,0.00,0,Wunderground v.1.15,2013-06-15 08:40:00,
2013-06-15 03:45:00,76.6,73.1,29.88,SSW,201,0.0,0.0,89,0.00,,,0.00,0,Wunderground v.1.15,2013-06-15 08:45:00,
2013-06-15 03:50:00,76.4,72.9,29.88,SSW,201,0.0,0.0,89,0.00,,,0.00,0,Wunderground v.1.15,2013-06-15 08:50:00,
2013-06-15 03:55:00,76.2,73.1,29.88,SSW,201,0.0,0.0,90,0.00,,,0.00,0,Wunderground v.1.15,2013-06-15 08:55:00,
2013-06-15 04:00:00,76.1,73.0,29.88,SSW,201,0.0,0.0,90,0.00,,,0.00,0,Wunderground v.1.15,2013-06-15 09:00:00,
2013-06-15 04:10:00,75.9,73.1,29.89,SSW,201,0.0,0.0,91,0.00,,,0.00,0,Wunderground v.1.15,2013-06-15 09:10:00,
2013-06-15 04:15:00,75.8,73.0,29.89,SSW,201,0.0,0.0,91,0.00,,,0.00,0,Wunderground v.1.15,2013-06-15 09:15:00,
2013-06-15 04:25:00,75.6,73.1,29.89,SSW,201,0.0,0.0,92,0.00,,,0.00,0,Wunderground v.1.15,2013-06-15 09:25:00,
2013-06-15 04:30:00,75.7,73.2,29.89,WSW,254,0.0,0.0,92,0.00,,,0.00,0,Wunderground v.1.15,2013-06-15 09:30:00,
2013-06-15 04:35:00,75.8,73.3,29.89,West,261,0.0,0.0,92,0.00,,,0.00,0,Wunderground v.1.15,2013-06-15 09:35:00,
2013-06-15 04:40:00,76.0,73.5,29.89,SSE,148,0.0,0.0,92,0.00,,,0.00,0,Wunderground v.1.15,2013-06-15 09:40:00,
2013-06-15 04:45:00,76.2,73.7,29.89,West,260,0.0,0.0,92,0.00,,,0.00,0,Wunderground v.1.15,2013-06-15 09:45:00,
2013-06-15 04:50:00,76.3,73.8,29.89,WSW,257,0.0,0.0,92,0.00,,,0.00,0,Wunderground v.1.15,2013-06-15 09:50:00,
2013-06-15 05:00:00,76.3,73.8,29.89,WSW,257,0.0,0.0,92,0.00,,,0.00,0,Wunderground v.1.15,2013-06-15 10:00:00,
2013-06-15 05:05:00,76.3,73.8,29.89,WSW,257,0.0,0.0,92,0.00,,,0.00,0,Wunderground v.1.15,2013-06-15 10:05:00,
2013-06-15 05:10:00,76.3,73.8,29.89,WSW,257,0.0,0.0,92,0.00,,,0.00,0,Wunderground v.1.15,2013-06-15 10:10:00,
2013-06-15 05:15:00,76.2,73.7,29.89,WSW,257,0.0,0.0,92,0.00,,,0.00,0,Wunderground v.1.15,2013-06-15 10:15:00,
2013-06-15 05:20:00,76.2,73.7,29.89,WSW,254,0.0,0.0,92,0.00,,,0.00,0,Wunderground v.1.15,2013-06-15 10:20:00,
2013-06-15 05:30:00,76.2,73.7,29.89,WSW,254,0.0,0.0,92,0.00,,,0.00,0,Wunderground v.1.15,2013-06-15 10:30:00,
2013-06-15 05:35:00,76.2,73.7,29.89,WSW,254,0.0,0.0,92,0.00,,,0.00,0,Wunderground v.1.15,2013-06-15 10:35:00,
2013-06-15 05:40:00,76.1,73.6,29.89,WSW,254,0.0,0.0,92,0.00,,,0.00,0,Wunderground v.1.15,2013-06-15 10:40:00,
2013-06-15 05:45:00,76.0,73.5,29.90,WSW,254,0.0,0.0,92,0.00,,,0.00,0,Wunderground v.1.15,2013-06-15 10:45:00,
2013-06-15 05:50:00,76.0,73.5,29.90,WSW,254,0.0,0.0,92,0.00,,,0.00,0,Wunderground v.1.15,2013-06-15 10:50:00,
2013-06-15 05:55:00,75.9,73.7,29.90,WSW,254,0.0,0.0,93,0.00,,,0.00,0,Wunderground v.1.15,2013-06-15 10:55:00,
2013-06-15 06:00:00,75.8,73.6,29.90,WSW,254,0.0,0.0,93,0.00,,,0.00,0,Wunderground v.1.15,2013-06-15 11:00:00,
2013-06-15 06:10:00,75.8,73.6,29.91,WSW,254,0.0,0.0,93,0.00,,,0.00,0,Wunderground v.1.15,2013-06-15 11:10:00,
2013-06-15 06:20:00,75.7,73.5,29.91,WSW,254,0.0,0.0,93,0.00,,,0.00,0,Wunderground v.1.15,2013-06-15 11:20:00,
2013-06-15 06:30:00,75.7,73.5,29.91,WSW,254,0.0,0.0,93,0.00,,,0.00,0,Wunderground v.1.15,2013-06-15 11:30:00,
2013-06-15 06:35:00,75.7,73.5,29.91,WSW,254,0.0,0.0,93,0.00,,,0.00,0,Wunderground v.1.15,2013-06-15 11:35:00,
2013-06-15 06:45:00,75.6,73.8,29.92,WSW,254,0.0,0.0,94,0.00,,,0.00,0,Wunderground v.1.15,2013-06-15 11:45:00,
2013-06-15 06:50:00,75.6,73.8,29.92,WSW,254,0.0,0.0,94,0.00,,,0.00,5,Wunderground v.1.15,2013-06-15 11:50:00,
2013-06-15 06:55:00,75.6,73.8,29.92,WSW,254,0.0,0.0,94,0.00,,,0.00,7,Wunderground v.1.15,2013-06-15 11:55:00,
2013-06-15 07:00:00,75.7,73.8,29.92,WSW,254,0.0,0.0,94,0.00,,,0.00,9,Wunderground v.1.15,2013-06-15 12:00:00,
2013-06-15 07:05:00,75.7,73.5,29.92,WSW,254,0.0,0.0,93,0.00,,,0.00,14,Wunderground v.1.15,2013-06-15 12:05:00,
2013-06-15 07:15:00,75.8,73.6,29.92,WSW,254,0.0,0.0,93,0.00,,,0.00,28,Wunderground v.1.15,2013-06-15 12:15:00,
2013-06-15 07:20:00,75.8,73.6,29.93,WSW,254,0.0,0.0,93,0.00,,,0.00,37,Wunderground v.1.15,2013-06-15 12:20:00,
2013-06-15 07:25:00,75.9,73.7,29.93,WSW,254,0.0,0.0,93,0.00,,,0.00,49,Wunderground v.1.15,2013-06-15 12:25:00,
2013-06-15 07:30:00,76.0,73.8,29.93,WSW,254,0.0,0.0,93,0.00,,,0.00,67,Wunderground v.1.15,2013-06-15 12:30:00,
2013-06-15 07:35:00,76.0,73.8,29.93,WSW,254,0.0,0.0,93,0.00,,,0.00,77,Wunderground v.1.15,2013-06-15 12:35:00,
2013-06-15 07:40:00,76.1,73.9,29.93,WSW,254,0.0,0.0,93,0.00,,,0.00,91,Wunderground v.1.15,2013-06-15 12:40:00,
2013-06-15 07:50:00,76.5,74.3,29.93,WSW,254,0.0,0.0,93,0.00,,,0.00,83,Wunderground v.1.15,2013-06-15 12:50:00,
2013-06-15 07:55:00,76.7,74.2,29.94,WSW,254,0.0,0.0,92,0.00,,,0.00,95,Wunderground v.1.15,2013-06-15 12:55:00,
2013-06-15 08:00:00,76.9,74.4,29.94,WSW,254,0.0,0.0,92,0.00,,,0.00,134,Wunderground v.1.15,2013-06-15 13:00:00,
2013-06-15 08:05:00,77.2,74.4,29.94,WSW,254,0.0,1.0,91,0.00,,,0.00,144,Wunderground v.1.15,2013-06-15 13:05:00,
2013-06-15 08:10:00,77.4,74.2,29.94,West,266,0.0,2.0,90,0.00,,,0.00,149,Wunderground v.1.15,2013-06-15 13:10:00,
2013-06-15 08:20:00,78.2,74.7,29.94,SW,227,0.0,0.0,89,0.00,,,0.00,243,Wunderground v.1.15,2013-06-15 13:20:00,
2013-06-15 08:25:00,78.6,74.7,29.94,WSW,247,0.0,1.0,88,0.00,,,0.00,211,Wunderground v.1.15,2013-06-15 13:25:00,
2013-06-15 08:30:00,78.9,74.4,29.94,SW,217,1.0,1.0,86,0.00,,,0.00,200,Wunderground v.1.15,2013-06-15 13:30:00,
2013-06-15 08:35:00,79.2,75.0,29.94,WNW,294,0.0,1.0,87,0.00,,,0.00,204,Wunderground v.1.15,2013-06-15 13:35:00,
2013-06-15 08:40:00,79.4,74.8,29.94,West,264,0.0,0.0,86,0.00,,,0.00,220,Wunderground v.1.15,2013-06-15 13:40:00,
2013-06-15 08:45:00,79.6,74.3,29.94,WSW,245,1.0,1.0,84,0.00,,,0.00,311,Wunderground v.1.15,2013-06-15 13:45:00,
2013-06-15 08:50:00,80.0,74.4,29.94,West,265,0.0,0.0,83,0.00,,,0.00,656,Wunderground v.1.15,2013-06-15 13:50:00,
2013-06-15 08:55:00,80.8,74.8,29.95,SSW,199,1.0,1.0,82,0.00,,,0.00,675,Wunderground v.1.15,2013-06-15 13:55:00,
2013-06-15 09:00:00,81.9,75.5,29.95,South,182,1.0,1.0,81,0.00,,,0.00,635,Wunderground v.1.15,2013-06-15 14:00:00,
2013-06-15 09:05:00,83.0,74.6,29.95,SSW,197,1.0,1.0,76,0.00,,,0.00,424,Wunderground v.1.15,2013-06-15 14:05:00,
2013-06-15 09:10:00,83.7,74.5,29.95,WNW,292,1.0,3.0,74,0.00,,,0.00,749,Wunderground v.1.15,2013-06-15 14:10:00,
2013-06-15 09:15:00,83.4,74.6,29.95,WSW,248,1.0,3.0,75,0.00,,,0.00,383,Wunderground v.1.15,2013-06-15 14:15:00,
2013-06-15 09:20:00,83.0,73.9,29.95,ESE,105,2.0,2.0,74,0.00,,,0.00,443,Wunderground v.1.15,2013-06-15 14:20:00,
2013-06-15 09:25:00,82.9,74.2,29.95,WSW,250,2.0,2.0,75,0.00,,,0.00,404,Wunderground v.1.15,2013-06-15 14:25:00,
2013-06-15 09:30:00,82.9,73.8,29.95,SSW,200,2.0,2.0,74,0.00,,,0.00,366,Wunderground v.1.15,2013-06-15 14:30:00,
2013-06-15 09:35:00,82.9,73.8,29.96,West,268,2.0,2.0,74,0.00,,,0.00,313,Wunderground v.1.15,2013-06-15 14:35:00,
2013-06-15 09:40:00,82.8,74.1,29.96,SW,219,2.0,2.0,75,0.00,,,0.00,244,Wunderground v.1.15,2013-06-15 14:40:00,
2013-06-15 09:45:00,82.7,74.0,29.96,WSW,242,1.0,2.0,75,0.00,,,0.00,316,Wunderground v.1.15,2013-06-15 14:45:00,
2013-06-15 09:50:00,82.7,74.0,29.96,East,86,1.0,1.0,75,0.00,,,0.00,385,Wunderground v.1.15,2013-06-15 14:50:00,
2013-06-15 10:00:00,83.3,74.1,29.96,WNW,284,1.0,1.0,74,0.00,,,0.00,436,Wunderground v.1.15,2013-06-15 15:00:00,
2013-06-15 10:05:00,83.4,73.4,29.96,West,274,1.0,2.0,72,0.00,,,0.00,279,Wunderground v.1.15,2013-06-15 15:05:00,
2013-06-15 10:10:00,83.3,73.3,29.96,WSW,255,1.0,1.0,72,0.00,,,0.00,392,Wunderground v.1.15,2013-06-15 15:10:00,
2013-06-15 10:15:00,83.4,73.0,29.96,WSW,250,2.0,2.0,71,0.00,,,0.00,501,Wunderground v.1.15,2013-06-15 15:15:00,
2013-06-15 10:20:00,83.6,73.2,29.96,ESE,111,2.0,2.0,71,0.00,,,0.00,378,Wunderground v.1.15,2013-06-15 15:20:00,
2013-06-15 10:30:00,84.5,73.2,29.96,WNW,291,0.0,1.0,69,0.00,,,0.00,517,Wunderground v.1.15,2013-06-15 15:30:00,
2013-06-15 10:35:00,84.9,74.0,29.96,ESE,117,0.0,1.0,70,0.00,,,0.00,554,Wunderground v.1.15,2013-06-15 15:35:00,
2013-06-15 10:40:00,85.2,73.4,29.96,West,276,1.0,1.0,68,0.00,,,0.00,564,Wunderground v.1.15,2013-06-15 15:40:00,
2013-06-15 10:45:00,85.1,73.3,29.95,SSW,196,1.0,1.0,68,0.00,,,0.00,541,Wunderground v.1.15,2013-06-15 15:45:00,
2013-06-15 10:50:00,85.1,72.9,29.95,NNE,26,1.0,1.0,67,0.00,,,0.00,482,Wunderground v.1.15,2013-06-15 15:50:00,
2013-06-15 10:55:00,85.0,72.8,29.95,WSW,246,1.0,1.0,67,0.00,,,0.00,450,Wunderground v.1.15,2013-06-15 15:55:00,
2013-06-15 11:05:00,84.8,72.2,29.95,SW,223,1.0,1.0,66,0.00,,,0.00,352,Wunderground v.1.15,2013-06-15 16:05:00,
2013-06-15 11:10:00,84.6,72.9,29.95,WNW,293,1.0,1.0,68,0.00,,,0.00,362,Wunderground v.1.15,2013-06-15 16:10:00,
2013-06-15 11:15:00,84.5,72.8,29.96,East,87,1.0,1.0,68,0.00,,,0.00,334,Wunderground v.1.15,2013-06-15 16:15:00,
2013-06-15 11:20:00,84.4,72.2,29.96,West,271,1.0,1.0,67,0.00,,,0.00,302,Wunderground v.1.15,2013-06-15 16:20:00,
2013-06-15 11:25:00,84.3,72.6,29.96,SSW,211,1.0,1.0,68,0.00,,,0.00,334,Wunderground v.1.15,2013-06-15 16:25:00,
2013-06-15 11:30:00,84.3,72.6,29.96,ESE,103,1.0,3.0,68,0.00,,,0.00,425,Wunderground v.1.15,2013-06-15 16:30:00,
2013-06-15 11:40:00,84.7,73.0,29.96,SSE,167,1.0,1.0,68,0.00,,,0.00,448,Wunderground v.1.15,2013-06-15 16:40:00,
2013-06-15 11:45:00,85.1,72.5,29.96,SSE,147,1.0,1.0,66,0.00,,,0.00,524,Wunderground v.1.15,2013-06-15 16:45:00,
2013-06-15 11:50:00,85.4,73.2,29.96,NW,309,1.0,1.0,67,0.00,,,0.00,499,Wunderground v.1.15,2013-06-15 16:50:00,
2013-06-15 11:55:00,85.6,72.5,29.96,SSE,150,1.0,1.0,65,0.00,,,0.00,661,Wunderground v.1.15,2013-06-15 16:55:00,
2013-06-15 12:00:00,86.1,72.0,29.95,East,85,2.0,2.0,63,0.00,,,0.00,642,Wunderground v.1.15,2013-06-15 17:00:00,
2013-06-15 12:10:00,87.0,71.9,29.95,WNW,283,2.0,3.0,61,0.00,,,0.00,617,Wunderground v.1.15,2013-06-15 17:10:00,
2013-06-15 12:15:00,86.9,71.8,29.95,NE,55,2.0,3.0,61,0.00,,,0.00,659,Wunderground v.1.15,2013-06-15 17:15:00,
2013-06-15 12:20:00,86.9,71.8,29.95,NE,46,2.0,2.0,61,0.00,,,0.00,548,Wunderground v.1.15,2013-06-15 17:20:00,
2013-06-15 12:25:00,87.2,73.1,29.95,East,79,2.0,2.0,63,0.00,,,0.00,1178,Wunderground v.1.15,2013-06-15 17:25:00,
2013-06-15 12:30:00,87.5,71.9,29.95,SSW,211,1.0,1.0,60,0.00,,,0.00,701,Wunderground v.1.15,2013-06-15 17:30:00,
2013-06-15 12:35:00,87.5,71.9,29.94,East,84,2.0,2.0,60,0.00,,,0.00,631,Wunderground v.1.15,2013-06-15 17:35:00,
2013-06-15 12:40:00,87.5,71.4,29.95,NE,52,1.0,1.0,59,0.00,,,0.00,589,Wunderground v.1.15,2013-06-15 17:40:00,
2013-06-15 12:45:00,87.5,70.4,29.94,ENE,71,1.0,2.0,57,0.00,,,0.00,526,Wunderground v.1.15,2013-06-15 17:45:00,
2013-06-15 12:50:00,87.2,69.6,29.94,SSW,207,1.0,2.0,56,0.00,,,0.00,475,Wunderground v.1.15,2013-06-15 17:50:00,
2013-06-15 12:55:00,86.8,70.2,29.94,East,101,1.0,2.0,58,0.00,,,0.00,420,Wunderground v.1.15,2013-06-15 17:55:00,
2013-06-15 13:00:00,86.6,70.1,29.94,ENE,57,1.0,1.0,58,0.00,,,0.00,410,Wunderground v.1.15,2013-06-15 18:00:00,
2013-06-15 13:05:00,86.3,69.3,29.94,South,170,1.0,2.0,57,0.00,,,0.00,411,Wunderground v.1.15,2013-06-15 18:05:00,
2013-06-15 13:15:00,86.1,70.1,29.94,East,93,1.0,3.0,59,0.00,,,0.00,304,Wunderground v.1.15,2013-06-15 18:15:00,
2013-06-15 13:20:00,85.8,70.3,29.94,SW,234,1.0,4.0,60,0.00,,,0.00,276,Wunderground v.1.15,2013-06-15 18:20:00,
2013-06-15 13:25:00,85.6,71.1,29.94,South,172,1.0,4.0,62,0.00,,,0.00,255,Wunderground v.1.15,2013-06-15 18:25:00,
2013-06-15 13:30:00,85.4,69.4,29.94,SW,221,1.0,1.0,59,0.00,,,0.00,234,Wunderground v.1.15,2013-06-15 18:30:00,
2013-06-15 13:35:00,85.3,70.3,29.94,South,171,0.0,1.0,61,0.00,,,0.00,230,Wunderground v.1.15,2013-06-15 18:35:00,
2013-06-15 13:45:00,84.8,70.8,29.94,West,270,0.0,0.0,63,0.00,,,0.00,230,Wunderground v.1.15,2013-06-15 18:45:00,
2013-06-15 13:50:00,84.7,70.7,29.94,WSW,244,1.0,1.0,63,0.00,,,0.00,260,Wunderground v.1.15,2013-06-15 18:50:00,
2013-06-15 13:55:00,84.7,70.7,29.94,SSE,167,1.0,1.0,63,0.00,,,0.00,295,Wunderground v.1.15,2013-06-15 18:55:00,
2013-06-15 14:00:00,84.8,71.3,29.93,WNW,294,0.0,0.0,64,0.00,,,0.00,264,Wunderground v.1.15,2013-06-15 19:00:00,
2013-06-15 14:05:00,84.8,70.8,29.93,WSW,242,0.0,2.0,63,0.00,,,0.00,272,Wunderground v.1.15,2013-06-15 19:05:00,
2013-06-15 14:10:00,84.9,70.9,29.93,SSE,159,0.0,0.0,63,0.00,,,0.00,253,Wunderground v.1.15,2013-06-15 19:10:00,
2013-06-15 14:15:00,84.9,70.9,29.93,WNW,302,0.0,0.0,63,0.00,,,0.00,232,Wunderground v.1.15,2013-06-15 19:15:00,
2013-06-15 14:25:00,84.8,70.3,29.93,East,92,1.0,2.0,62,0.00,,,0.00,294,Wunderground v.1.15,2013-06-15 19:25:00,
2013-06-15 14:30:00,84.8,70.8,29.93,SSW,209,1.0,1.0,63,0.00,,,0.00,345,Wunderground v.1.15,2013-06-15 19:30:00,
2013-06-15 14:40:00,85.2,71.2,29.93,SW,232,0.0,0.0,63,0.00,,,0.00,360,Wunderground v.1.15,2013-06-15 19:40:00,
2013-06-15 14:45:00,85.4,71.4,29.93,South,183,0.0,0.0,63,0.00,,,0.00,401,Wunderground v.1.15,2013-06-15 19:45:00,
2013-06-15 14:50:00,85.7,71.2,29.93,ESE,113,0.0,0.0,62,0.00,,,0.00,415,Wunderground v.1.15,2013-06-15 19:50:00,
2013-06-15 14:55:00,85.8,71.7,29.92,SW,218,1.0,1.0,63,0.00,,,0.00,443,Wunderground v.1.15,2013-06-15 19:55:00,
2013-06-15 15:00:00,86.0,71.0,29.92,SE,137,1.0,1.0,61,0.00,,,0.00,353,Wunderground v.1.15,2013-06-15 20:00:00,
2013-06-15 15:10:00,85.6,70.6,29.92,WSW,246,0.0,0.0,61,0.00,,,0.00,236,Wunderground v.1.15,2013-06-15 20:10:00,
2013-06-15 15:20:00,85.5,71.0,29.92,East,81,0.0,0.0,62,0.00,,,0.00,262,Wunderground v.1.15,2013-06-15 20:20:00,
2013-06-15 15:25:00,85.4,70.9,29.92,WSW,253,0.0,0.0,62,0.00,,,0.00,250,Wunderground v.1.15,2013-06-15 20:25:00,
2013-06-15 15:30:00,85.2,70.7,29.92,WSW,254,0.0,0.0,62,0.00,,,0.00,232,Wunderground v.1.15,2013-06-15 20:30:00,
2013-06-15 15:35:00,85.2,71.6,29.92,South,179,0.0,0.0,64,0.00,,,0.00,241,Wunderground v.1.15,2013-06-15 20:35:00,
2013-06-15 15:40:00,85.2,71.6,29.92,South,177,0.0,0.0,64,0.00,,,0.00,227,Wunderground v.1.15,2013-06-15 20:40:00,
2013-06-15 15:45:00,85.0,71.5,29.92,West,265,0.0,0.0,64,0.00,,,0.00,202,Wunderground v.1.15,2013-06-15 20:45:00,
2013-06-15 15:50:00,84.8,71.7,29.92,ENE,78,0.0,0.0,65,0.00,,,0.00,190,Wunderground v.1.15,2013-06-15 20:50:00,
2013-06-15 15:55:00,84.7,71.2,29.91,ESE,104,0.0,0.0,64,0.00,,,0.00,207,Wunderground v.1.15,2013-06-15 20:55:00,
2013-06-15 16:00:00,84.7,71.2,29.91,SE,124,0.0,0.0,64,0.00,,,0.00,204,Wunderground v.1.15,2013-06-15 21:00:00,
2013-06-15 16:05:00,84.8,71.7,29.91,ESE,118,0.0,0.0,65,0.00,,,0.00,171,Wunderground v.1.15,2013-06-15 21:05:00,
2013-06-15 16:10:00,84.7,70.7,29.91,ESE,118,0.0,0.0,63,0.00,,,0.00,149,Wunderground v.1.15,2013-06-15 21:10:00,
2013-06-15 16:15:00,84.6,71.1,29.91,SSW,212,0.0,0.0,64,0.00,,,0.00,148,Wunderground v.1.15,2013-06-15 21:15:00,
2013-06-15 16:20:00,84.6,72.0,29.91,SSW,212,0.0,0.0,66,0.00,,,0.00,158,Wunderground v.1.15,2013-06-15 21:20:00,
2013-06-15 16:25:00,84.6,71.5,29.91,SSW,212,0.0,0.0,65,0.00,,,0.00,162,Wunderground v.1.15,2013-06-15 21:25:00,
2013-06-15 16:30:00,84.7,71.6,29.91,SSW,212,0.0,0.0,65,0.00,,,0.00,176,Wunderground v.1.15,2013-06-15 21:30:00,
2013-06-15 16:35:00,84.8,71.7,29.91,SW,215,0.0,0.0,65,0.00,,,0.00,227,Wunderground v.1.15,2013-06-15 21:35:00,
2013-06-15 16:40:00,84.9,70.4,29.90,SW,215,0.0,0.0,62,0.00,,,0.00,287,Wunderground v.1.15,2013-06-15 21:40:00,
2013-06-15 16:45:00,85.0,71.0,29.90,SW,218,0.0,0.0,63,0.00,,,0.00,258,Wunderground v.1.15,2013-06-15 21:45:00,
2013-06-15 16:50:00,85.1,71.5,29.90,WSW,240,0.0,0.0,64,0.00,,,0.00,204,Wunderground v.1.15,2013-06-15 21:50:00,
2013-06-15 17:00:00,84.8,70.8,29.90,WSW,253,0.0,0.0,63,0.00,,,0.00,144,Wunderground v.1.15,2013-06-15 22:00:00,
2013-06-15 17:05:00,84.7,71.2,29.90,WSW,253,0.0,0.0,64,0.00,,,0.00,146,Wunderground v.1.15,2013-06-15 22:05:00,
2013-06-15 17:10:00,84.6,71.1,29.90,WSW,253,0.0,0.0,64,0.00,,,0.00,158,Wunderground v.1.15,2013-06-15 22:10:00,
2013-06-15 17:15:00,84.6,71.1,29.89,WSW,253,0.0,0.0,64,0.00,,,0.00,139,Wunderground v.1.15,2013-06-15 22:15:00,
2013-06-15 17:20:00,84.6,71.1,29.89,WSW,253,0.0,0.0,64,0.00,,,0.00,113,Wunderground v.1.15,2013-06-15 22:20:00,
2013-06-15 17:30:00,84.2,70.7,29.89,WSW,258,0.0,0.0,64,0.00,,,0.00,91,Wunderground v.1.15,2013-06-15 22:30:00,
2013-06-15 17:35:00,84.2,71.2,29.89,WSW,258,0.0,0.0,65,0.00,,,0.00,95,Wunderground v.1.15,2013-06-15 22:35:00,
2013-06-15 17:40:00,84.1,71.1,29.89,WSW,249,0.0,0.0,65,0.00,,,0.00,98,Wunderground v.1.15,2013-06-15 22:40:00,
2013-06-15 17:45:00,84.1,71.5,29.88,WNW,294,0.0,0.0,66,0.00,,,0.00,105,Wunderground v.1.15,2013-06-15 22:45:00,
2013-06-15 17:50:00,84.1,71.1,29.88,WNW,294,0.0,0.0,65,0.00,,,0.00,114,Wunderground v.1.15,2013-06-15 22:50:00,
2013-06-15 17:55:00,84.1,71.5,29.88,WNW,294,0.0,0.0,66,0.00,,,0.00,135,Wunderground v.1.15,2013-06-15 22:55:00,
2013-06-15 18:00:00,84.3,71.7,29.88,WNW,294,0.0,0.0,66,0.00,,,0.00,163,Wunderground v.1.15,2013-06-15 23:00:00,
2013-06-15 18:10:00,84.6,71.5,29.88,WNW,299,0.0,0.0,65,0.00,,,0.00,134,Wunderground v.1.15,2013-06-15 23:10:00,
2013-06-15 18:15:00,84.7,73.0,29.88,WNW,299,0.0,0.0,68,0.00,,,0.00,130,Wunderground v.1.15,2013-06-15 23:15:00,
2013-06-15 18:20:00,84.9,71.8,29.87,WNW,299,0.0,0.0,65,0.00,,,0.00,162,Wunderground v.1.15,2013-06-15 23:20:00,
2013-06-15 18:25:00,85.1,72.0,29.87,WNW,299,0.0,0.0,65,0.00,,,0.00,318,Wunderground v.1.15,2013-06-15 23:25:00,
2013-06-15 18:35:00,85.4,71.8,29.87,WNW,299,0.0,0.0,64,0.00,,,0.00,209,Wunderground v.1.15,2013-06-15 23:35:00,
2013-06-15 18:40:00,85.6,71.6,29.87,ENE,76,0.0,0.0,63,0.00,,,0.00,195,Wunderground v.1.15,2013-06-15 23:40:00,
2013-06-15 18:45:00,85.8,71.7,29.87,SSW,209,0.0,0.0,63,0.00,,,0.00,155,Wunderground v.1.15,2013-06-15 23:45:00,
2013-06-15 18:50:00,85.9,71.4,29.86,SW,235,0.0,0.0,62,0.00,,,0.00,107,Wunderground v.1.15,2013-06-15 23:50:00,
2013-06-15 18:55:00,86.2,71.2,29.86,SW,235,0.0,0.0,61,0.00,,,0.00,81,Wunderground v.1.15,2013-06-15 23:55:00,
2013-06-15 19:00:00,86.3,71.3,29.86,South,171,0.0,0.0,61,0.00,,,0.00,65,Wunderground v.1.15,2013-06-16 00:00:00,
2013-06-15 19:05:00,86.4,71.4,29.86,South,171,0.0,0.0,61,0.00,,,0.00,56,Wunderground v.1.15,2013-06-16 00:05:00,
2013-06-15 19:10:00,86.5,71.9,29.86,South,171,0.0,0.0,62,0.00,,,0.00,47,Wunderground v.1.15,2013-06-16 00:10:00,
2013-06-15 19:15:00,86.4,71.4,29.86,South,171,0.0,0.0,61,0.00,,,0.00,44,Wunderground v.1.15,2013-06-16 00:15:00,
2013-06-15 19:20:00,86.4,71.4,29.86,South,171,0.0,0.0,61,0.00,,,0.00,40,Wunderground v.1.15,2013-06-16 00:20:00,
2013-06-15 19:25:00,86.3,71.7,29.86,South,171,0.0,0.0,62,0.00,,,0.00,37,Wunderground v.1.15,2013-06-16 00:25:00,
2013-06-15 19:30:00,86.1,72.0,29.86,South,171,0.0,0.0,63,0.00,,,0.00,35,Wunderground v.1.15,2013-06-16 00:30:00,
2013-06-15 19:35:00,86.0,72.4,29.87,South,171,0.0,0.0,64,0.00,,,0.00,33,Wunderground v.1.15,2013-06-16 00:35:00,
2013-06-15 19:40:00,85.8,71.7,29.87,South,171,0.0,0.0,63,0.00,,,0.00,30,Wunderground v.1.15,2013-06-16 00:40:00,
2013-06-15 19:45:00,85.5,71.9,29.87,SSW,198,0.0,0.0,64,0.00,,,0.00,28,Wunderground v.1.15,2013-06-16 00:45:00,
2013-06-15 19:50:00,85.3,72.2,29.86,SSW,198,0.0,0.0,65,0.00,,,0.00,26,Wunderground v.1.15,2013-06-16 00:50:00,
2013-06-15 19:55:00,85.1,72.5,29.86,SSW,198,0.0,0.0,66,0.00,,,0.00,25,Wunderground v.1.15,2013-06-16 00:55:00,
2013-06-15 20:00:00,84.8,72.2,29.87,SSW,198,0.0,0.0,66,0.00,,,0.00,23,Wunderground v.1.15,2013-06-16 01:00:00,
2013-06-15 20:05:00,84.4,72.2,29.87,SSW,198,0.0,0.0,67,0.00,,,0.00,21,Wunderground v.1.15,2013-06-16 01:05:00,
2013-06-15 20:15:00,83.5,72.3,29.87,SSW,198,0.0,0.0,69,0.00,,,0.00,16,Wunderground v.1.15,2013-06-16 01:15:00,
2013-06-15 20:20:00,83.1,72.3,29.87,SSW,198,0.0,0.0,70,0.00,,,0.00,12,Wunderground v.1.15,2013-06-16 01:20:00,
2013-06-15 20:25:00,82.9,72.9,29.87,SSW,198,0.0,0.0,72,0.00,,,0.00,11,Wunderground v.1.15,2013-06-16 01:25:00,
2013-06-15 20:30:00,82.4,72.9,29.87,SSW,198,0.0,0.0,73,0.00,,,0.00,7,Wunderground v.1.15,2013-06-16 01:30:00,
2013-06-15 20:35:00,81.8,72.7,29.87,SSW,198,0.0,0.0,74,0.00,,,0.00,0,Wunderground v.1.15,2013-06-16 01:35:00,
2013-06-15 20:45:00,80.7,72.4,29.87,SSW,198,0.0,0.0,76,0.00,,,0.00,0,Wunderground v.1.15,2013-06-16 01:45:00,
2013-06-15 20:55:00,80.0,72.5,29.87,SSW,198,0.0,0.0,78,0.00,,,0.00,0,Wunderground v.1.15,2013-06-16 01:55:00,
2013-06-15 21:00:00,79.4,72.3,29.87,SSW,198,0.0,0.0,79,0.00,,,0.00,0,Wunderground v.1.15,2013-06-16 02:00:00,
2013-06-15 21:05:00,79.1,72.0,29.87,SSW,198,0.0,0.0,79,0.00,,,0.00,0,Wunderground v.1.15,2013-06-16 02:05:00,
2013-06-15 21:10:00,78.8,72.1,29.87,SSW,198,0.0,0.0,80,0.00,,,0.00,0,Wunderground v.1.15,2013-06-16 02:10:00,
2013-06-15 21:15:00,78.4,72.1,29.87,SSW,198,0.0,0.0,81,0.00,,,0.00,0,Wunderground v.1.15,2013-06-16 02:15:00,
2013-06-15 21:25:00,77.7,71.8,29.88,SE,127,0.0,0.0,82,0.00,,,0.00,0,Wunderground v.1.15,2013-06-16 02:25:00,
2013-06-15 21:30:00,77.5,71.6,29.88,SE,127,0.0,0.0,82,0.00,,,0.00,0,Wunderground v.1.15,2013-06-16 02:30:00,
2013-06-15 21:40:00,77.2,71.6,29.88,SE,127,0.0,0.0,83,0.00,,,0.00,0,Wunderground v.1.15,2013-06-16 02:40:00,
2013-06-15 21:45:00,77.0,71.4,29.88,SE,127,0.0,0.0,83,0.00,,,0.00,0,Wunderground v.1.15,2013-06-16 02:45:00,
2013-06-15 21:50:00,76.9,71.7,29.88,SE,127,0.0,0.0,84,0.00,,,0.00,0,Wunderground v.1.15,2013-06-16 02:50:00,
2013-06-15 21:55:00,76.7,71.5,29.89,SE,127,0.0,0.0,84,0.00,,,0.00,0,Wunderground v.1.15,2013-06-16 02:55:00,
2013-06-15 22:00:00,76.5,71.3,29.89,SE,127,0.0,0.0,84,0.00,,,0.00,0,Wunderground v.1.15,2013-06-16 03:00:00,
2013-06-15 22:05:00,76.2,71.4,29.89,SE,127,0.0,0.0,85,0.00,,,0.00,0,Wunderground v.1.15,2013-06-16 03:05:00,
2013-06-15 22:10:00,75.9,71.4,29.89,SE,127,0.0,1.0,86,0.00,,,0.00,0,Wunderground v.1.15,2013-06-16 03:10:00,
2013-06-15 22:20:00,75.2,71.1,29.89,SE,127,0.0,0.0,87,0.00,,,0.00,0,Wunderground v.1.15,2013-06-16 03:20:00,
2013-06-15 22:25:00,74.9,71.1,29.90,SE,127,0.0,0.0,88,0.00,,,0.00,0,Wunderground v.1.15,2013-06-16 03:25:00,
2013-06-15 22:30:00,74.8,71.0,29.90,SE,127,0.0,0.0,88,0.00,,,0.00,0,Wunderground v.1.15,2013-06-16 03:30:00,
2013-06-15 22:35:00,74.7,70.9,29.90,SE,127,0.0,0.0,88,0.00,,,0.00,0,Wunderground v.1.15,2013-06-16 03:35:00,
2013-06-15 22:40:00,74.6,70.8,29.90,SE,127,0.0,0.0,88,0.00,,,0.00,0,Wunderground v.1.15,2013-06-16 03:40:00,
2013-06-15 22:45:00,74.6,70.8,29.90,SE,127,0.0,0.0,88,0.00,,,0.00,0,Wunderground v.1.15,2013-06-16 03:45:00,
2013-06-15 22:50:00,74.6,70.8,29.90,SE,127,0.0,0.0,88,0.00,,,0.00,0,Wunderground v.1.15,2013-06-16 03:50:00,
2013-06-15 22:55:00,74.4,70.6,29.91,SE,127,0.0,0.0,88,0.00,,,0.00,0,Wunderground v.1.15,2013-06-16 03:55:00,
2013-06-15 23:00:00,74.2,70.7,29.91,SE,127,0.0,0.0,89,0.00,,,0.00,0,Wunderground v.1.15,2013-06-16 04:00:00,
2013-06-15 23:05:00,74.0,70.6,29.91,SE,127,0.0,0.0,89,0.00,,,0.00,0,Wunderground v.1.15,2013-06-16 04:05:00,
2013-06-15 23:10:00,74.0,70.6,29.91,SE,127,0.0,0.0,89,0.00,,,0.00,0,Wunderground v.1.15,2013-06-16 04:10:00,
2013-06-15 23:15:00,73.9,70.8,29.91,SE,127,0.0,0.0,90,0.00,,,0.00,0,Wunderground v.1.15,2013-06-16 04:15:00,
2013-06-15 23:20:00,74.0,70.6,29.91,SE,127,0.0,0.0,89,0.00,,,0.00,0,Wunderground v.1.15,2013-06-16 04:20:00,
2013-06-15 23:25:00,74.0,70.6,29.91,SE,127,0.0,0.0,89,0.00,,,0.00,0,Wunderground v.1.15,2013-06-16 04:25:00,
2013-06-15 23:30:00,73.9,70.8,29.91,SE,127,0.0,0.0,90,0.00,,,0.00,0,Wunderground v.1.15,2013-06-16 04:30:00,
2013-06-15 23:35:00,73.8,70.7,29.91,SE,127,0.0,0.0,90,0.00,,,0.00,0,Wunderground v.1.15,2013-06-16 04:35:00,
2013-06-15 23:40:00,73.8,70.7,29.91,SE,127,0.0,0.0,90,0.00,,,0.00,0,Wunderground v.1.15,2013-06-16 04:40:00,
2013-06-15 23:45:00,73.8,70.7,29.91,SE,127,0.0,0.0,90,0.00,,,0.00,0,Wunderground v.1.15,2013-06-16 04:45:00,
2013-06-15 23:50:00,73.8,70.7,29.91,SE,124,0.0,0.0,90,0.00,,,0.00,0,Wunderground v.1.15,2013-06-16 04:50:00,
2013-06-15 23:55:00,73.8,70.7,29.91,SE,124,0.0,0.0,90,0.00,,,0.00,0,Wunderground v.1.15,2013-06-16 04:55:00,